Flag for Romania Weather past 2 weeks in Constanța, Romania

Now
44 °F

Light rain. Overcast.


Feels Like: 39 °F
Forecast: 48 / 52 °F
Wind: 7 mph from North

Location: Constanta

Current Time: Oct 25, 2014 at 8:35:21 AM

Latest Report: Oct 25, 2014 at 7:00 AM


Visibility: 1 mi

Pressure: 30.13 "Hg

Humidity: 99%

Dew point: 43 °F

Location of ConstanțaLocation

Historic Weather in Constanța — Graph

°F

Constanța temperature yesterday

Maximum temperature yesterday: 66 °F (at 12:00 AM)
Minimum temperature yesterday: 45 °F (at 10:00 PM)
Average temperature yesterday: 54 °F

Past Weeks' High & Low Weather Summary

 TemperatureHumidityPressure
High76 °F (Oct 17, 3:00 PM)100% (Oct 24, 10:00 PM)30.45 "Hg (Oct 24, 10:00 PM)
Low41 °F (Oct 25, 5:00 AM)42% (Oct 17, 3:00 PM)29.59 "Hg (Oct 23, 4:00 AM)
Average59 °F81%29.98 "Hg
* Reported Oct 10 7:00 AM — Oct 25 7:00 AM, Constanța, Weather by CustomWeather, © 2014

Note: Actual official high and low records may vary slightly from our data, if they occured in-between our weather recording intervals... More about our weather records

Advertising

Constanța weather history for previous 24 hours

 ConditionsComfort  
Time TempWeatherWind HumidityBarometerVisibility
7:00 AM
Oct 25
44 °FLight rain. Overcast.7 mph99%30.13 "Hg1 mi
6:00 AM42 °FLight rain. Overcast.7 mph100%30.13 "Hg1 mi
5:00 AM41 °FLight rain. Overcast.8 mph100%30.11 "Hg1 mi
4:00 AM43 °FLight rain. Overcast.5 mph100%30.12 "Hg1 mi
3:00 AM45 °FLight rain. Overcast.5 mph99%30.12 "Hg2 mi
2:00 AM46 °FLight rain. Overcast.6 mph100%30.14 "Hg2 mi
1:00 AM45 °FLight rain. Overcast.7 mph100%30.12 "Hg2 mi
12:00 AM45 °FLight rain. Overcast.7 mph100%30.13 "Hg2 mi
11:00 PM
Oct 24
45 °FLight rain. Overcast.6 mph99%30.11 "Hg2 mi
10:00 PM45 °FLight rain. Overcast.6 mph100%30.10 "Hg2 mi
9:00 PM45 °FLight rain. Overcast.6 mph99%30.07 "Hg2 mi
8:00 PM46 °FFog.5 mph99%30.05 "Hg2 mi
7:00 PM46 °FFog.5 mph99%30.02 "Hg2 mi
6:00 PM47 °FFog.3 mph97%30.02 "Hg2 mi
5:00 PM47 °FOvercast.3 mph95%30.00 "Hg6 mi
4:00 PM49 °FOvercast.3 mph94%29.97 "Hg6 mi
3:00 PM51 °FOvercast.3 mph94%29.97 "Hg6 mi
2:00 PM54 °FPartly sunny.6 mph94%29.97 "Hg6 mi
1:00 PM58 °FPartly sunny.3 mph88%29.95 "Hg6 mi
12:00 PM56 °FOvercast.3 mph92%29.92 "Hg6 mi
11:00 AM53 °FOvercast.2 mph97%29.91 "Hg6 mi
10:00 AM52 °FOvercast.3 mph97%29.90 "Hg6 mi
9:00 AM53 °FOvercast.3 mph97%29.87 "Hg6 mi
8:00 AM53 °FFog.5 mph97%29.84 "Hg2 mi
Weather by CustomWeather, © 2014

See weather overviewHow to use our weather pages